Zurück zum Katalog

FENGYUN 1C DEB

AktivSSO
NORAD 30108·DEBRIS·🇨🇳 China

Gestartet May 10, 1999 von Taiyuan Satellite Launch Center

Loading…

Nächste Überflüge (nächste 24 Stunden)

TLE

AktuellSource: Space-Track

Epoche: Sep 14, 2026, 11:14 UTC

1 30108U 99025RM  26257.46847161  .00000405  00000-0  18435-3 0  9999
2 30108  98.6864 241.9181 0195845 309.8989 203.0973 14.17521398 15033

Verfolge FENGYUN 1C DEB in Echtzeit mit AllMySat

Download on the App Store